• In Czech Republic
  • List of Countries
  • For 7 days
  • Water Temperature
  • Satellite Maps
  • Weather Map
  • Weather Widgets
  • user-avatar
    Login

    Hourly Weather Hamilton

    Today, 22 October, Sunday

    Time Temperature Precipitation Wind Pressure Humidity
    00:00 +16°C° 0 mm 3 mps 753 mmHg 79%
    01:00 +16°C° 0 mm 3 mps 753 mmHg 82%
    02:00 +14°C° 0 mm 3 mps 753 mmHg 84%
    03:00 +14°C° 0 mm 3 mps 753 mmHg 87%
    04:00 +14°C° 0 mm 3 mps 753 mmHg 89%
    05:00 +13°C° 0 mm 3 mps 753 mmHg 89%
    06:00 +13°C° 0 mm 3 mps 753 mmHg 90%
    07:00 +13°C° 0 mm 3 mps 753 mmHg 90%
    08:00 +16°C° 0 mm 3 mps 753 mmHg 82%
    09:00 +18°C° 0 mm 4 mps 753 mmHg 74%
    10:00 +20°C° 0 mm 4 mps 753 mmHg 66%
    11:00 +21°C° 0 mm 4 mps 752 mmHg 61%
    12:00 +22°C° 0 mm 5 mps 752 mmHg 56%
    13:00 +23°C° 0 mm 5 mps 752 mmHg 51%
    14:00 +23°C° 0 mm 4 mps 751 mmHg 53%
    15:00 +23°C° 0 mm 4 mps 751 mmHg 56%
    16:00 +24°C° 0 mm 3 mps 751 mmHg 58%
    17:00 +21°C° 0 mm 3 mps 751 mmHg 63%
    18:00 +20°C° 0 mm 3 mps 751 mmHg 69%
    19:00 +18°C° 0 mm 3 mps 751 mmHg 74%
    20:00 +18°C° 0 mm 4 mps 751 mmHg 76%
    21:00 +18°C° 0 mm 4 mps 750 mmHg 78%
    22:00 +17°C° 0 mm 5 mps 750 mmHg 79%
    23:00 +16°C° 0 mm 5 mps 750 mmHg 81%

    Tomorrow, 23 October, Monday

    Time Temperature Precipitation Wind Pressure Humidity
    00:00 +16°C° 0 mm 5 mps 750 mmHg 83%
    01:00 +16°C° 0 mm 5 mps 749 mmHg 85%
    02:00 +16°C° 0 mm 5 mps 749 mmHg 84%
    03:00 +16°C° 0 mm 5 mps 749 mmHg 83%
    04:00 +15°C° 0 mm 5 mps 748 mmHg 82%
    05:00 +15°C° 0 mm 5 mps 748 mmHg 82%
    06:00 +15°C° 0 mm 5 mps 748 mmHg 82%
    07:00 +15°C° 0 mm 5 mps 748 mmHg 81%
    08:00 +16°C° 0 mm 6 mps 748 mmHg 77%
    09:00 +19°C° 0 mm 6 mps 747 mmHg 72%
    10:00 +20°C° 0 mm 6 mps 747 mmHg 68%
    11:00 +21°C° 0 mm 6 mps 746 mmHg 67%
    12:00 +21°C° 0 mm 6 mps 746 mmHg 66%
    13:00 +22°C° 0 mm 6 mps 745 mmHg 65%
    14:00 +21°C° 0.5 mm 6 mps 745 mmHg 71%
    15:00 +20°C° 0.5 mm 6 mps 744 mmHg 78%
    16:00 +19°C° 0.5 mm 5 mps 744 mmHg 85%
    17:00 +19°C° 1.8 mm 5 mps 743 mmHg 87%
    18:00 +19°C° 1.8 mm 6 mps 743 mmHg 89%
    19:00 +19°C° 1.8 mm 6 mps 742 mmHg 91%
    20:00 +19°C° 2.5 mm 6 mps 741 mmHg 90%
    21:00 +17°C° 2.5 mm 7 mps 741 mmHg 90%
    22:00 +17°C° 2.5 mm 8 mps 740 mmHg 90%
    23:00 +17°C° 2.7 mm 8 mps 739 mmHg 89%

    Day after tomorrow, 24 October, Tuesday

    Time Temperature Precipitation Wind Pressure Humidity
    00:00 +17°C° 2.7 mm 8 mps 738 mmHg 89%
    01:00 +17°C° 2.7 mm 8 mps 736 mmHg 88%
    02:00 +17°C° 3.5 mm 8 mps 735 mmHg 88%
    03:00 +17°C° 3.5 mm 9 mps 734 mmHg 88%
    04:00 +17°C° 3.5 mm 9 mps 733 mmHg 88%
    05:00 +17°C° 4.1 mm 8 mps 733 mmHg 90%
    06:00 +16°C° 4.1 mm 6 mps 732 mmHg 91%
    07:00 +15°C° 4.1 mm 5 mps 731 mmHg 93%
    08:00 +14°C° 2.2 mm 6 mps 732 mmHg 91%
    09:00 +12°C° 2.2 mm 7 mps 732 mmHg 89%
    10:00 +11°C° 2.2 mm 8 mps 732 mmHg 86%
    11:00 +12°C° 0 mm 7 mps 733 mmHg 82%
    12:00 +12°C° 0 mm 7 mps 734 mmHg 77%
    13:00 +12°C° 0 mm 7 mps 734 mmHg 73%
    14:00 +14°C° 0 mm 6 mps 735 mmHg 73%
    15:00 +14°C° 0 mm 6 mps 735 mmHg 73%
    16:00 +14°C° 0 mm 5 mps 735 mmHg 73%
    17:00 +13°C° 0.2 mm 5 mps 736 mmHg 77%
    18:00 +12°C° 0.2 mm 4 mps 736 mmHg 81%
    19:00 +11°C° 0.2 mm 3 mps 737 mmHg 85%
    20:00 +11°C° 0 mm 3 mps 737 mmHg 86%
    21:00 +10°C° 0 mm 3 mps 737 mmHg 87%
    22:00 +10°C° 0 mm 3 mps 737 mmHg 88%
    23:00 +8°C° 0 mm 4 mps 737 mmHg 88%

    25 October, Wednesday

    Time Temperature Precipitation Wind Pressure Humidity
    00:00 +8°C° 0 mm 4 mps 737 mmHg 87%
    01:00 +8°C° 0 mm 4 mps 737 mmHg 87%
    02:00 +7°C° 0 mm 4 mps 737 mmHg 88%
    03:00 +8°C° 0 mm 3 mps 737 mmHg 89%
    04:00 +7°C° 0 mm 3 mps 737 mmHg 90%
    05:00 +7°C° 0 mm 3 mps 737 mmHg 89%
    06:00 +7°C° 0 mm 3 mps 737 mmHg 88%
    07:00 +5°C° 0 mm 3 mps 737 mmHg 88%
    08:00 +7°C° 0 mm 3 mps 738 mmHg 83%
    09:00 +8°C° 0 mm 3 mps 738 mmHg 78%
    10:00 +9°C° 0 mm 3 mps 738 mmHg 73%
    11:00 +10°C° 0 mm 3 mps 738 mmHg 69%
    12:00 +10°C° 0 mm 2 mps 738 mmHg 65%
    13:00 +12°C° 0 mm 2 mps 738 mmHg 61%
    14:00 +12°C° 0 mm 2 mps 738 mmHg 61%
    15:00 +12°C° 0 mm 2 mps 738 mmHg 62%
    16:00 +12°C° 0 mm 2 mps 738 mmHg 63%
    17:00 +10°C° 0 mm 2 mps 738 mmHg 67%
    18:00 +9°C° 0 mm 3 mps 738 mmHg 71%
    19:00 +8°C° 0 mm 3 mps 739 mmHg 75%
    20:00 +7°C° 0 mm 3 mps 739 mmHg 77%
    21:00 +5°C° 0 mm 3 mps 739 mmHg 80%
    22:00 +5°C° 0 mm 3 mps 739 mmHg 82%
    23:00 +4°C° 0 mm 3 mps 739 mmHg 84%

    26 October, Thursday

    Time Temperature Precipitation Wind Pressure Humidity
    00:00 +4°C° 0 mm 3 mps 739 mmHg 86%
    01:00 +5°C° 0 mm 2 mps 739 mmHg 88%
    02:00 +4°C° 0 mm 3 mps 739 mmHg 89%
    03:00 +3°C° 0 mm 3 mps 740 mmHg 90%
    04:00 +3°C° 0 mm 3 mps 740 mmHg 91%
    05:00 +3°C° 0 mm 3 mps 740 mmHg 91%
    06:00 +3°C° 0 mm 3 mps 741 mmHg 91%
    07:00 +3°C° 0 mm 3 mps 742 mmHg 91%
    08:00 +5°C° 0 mm 3 mps 742 mmHg 83%
    09:00 +7°C° 0 mm 3 mps 743 mmHg 75%
    10:00 +8°C° 0 mm 4 mps 743 mmHg 67%
    11:00 +10°C° 0 mm 4 mps 743 mmHg 63%
    12:00 +9°C° 0 mm 5 mps 743 mmHg 59%
    13:00 +10°C° 0 mm 5 mps 744 mmHg 55%
    14:00 +10°C° 0 mm 5 mps 744 mmHg 56%
    15:00 +9°C° 0 mm 5 mps 744 mmHg 57%
    16:00 +9°C° 0 mm 5 mps 745 mmHg 59%
    17:00 +7°C° 0 mm 5 mps 745 mmHg 63%
    18:00 +6°C° 0 mm 4 mps 746 mmHg 68%
    19:00 +4°C° 0 mm 3 mps 746 mmHg 72%
    20:00 +4°C° 0 mm 3 mps 746 mmHg 73%
    21:00 +5°C° 0 mm 2 mps 747 mmHg 74%
    22:00 +4°C° 0 mm 2 mps 747 mmHg 74%
    23:00 +4°C° 0 mm 2 mps 747 mmHg 75%

    27 October, Friday

    Time Temperature Precipitation Wind Pressure Humidity
    00:00 +4°C° 0 mm 2 mps 747 mmHg 75%
    01:00 +4°C° 0 mm 1 mps 747 mmHg 75%
    02:00 +5°C° 0 mm 1 mps 747 mmHg 74%
    03:00 +5°C° 0 mm 1 mps 747 mmHg 73%
    04:00 +5°C° 0 mm 1 mps 747 mmHg 72%
    05:00 +5°C° 0 mm 1 mps 747 mmHg 72%
    06:00 +6°C° 0 mm 1 mps 747 mmHg 72%
    07:00 +5°C° 0 mm 2 mps 747 mmHg 72%
    08:00 +5°C° 0 mm 3 mps 747 mmHg 71%
    09:00 +7°C° 0 mm 4 mps 747 mmHg 70%
    10:00 +8°C° 0 mm 4 mps 747 mmHg 68%
    11:00 +9°C° 0.1 mm 5 mps 746 mmHg 67%
    12:00 +9°C° 0.1 mm 5 mps 745 mmHg 65%
    13:00 +10°C° 0.1 mm 5 mps 745 mmHg 63%
    14:00 +10°C° 0 mm 5 mps 744 mmHg 62%
    15:00 +12°C° 0 mm 5 mps 744 mmHg 61%
    16:00 +12°C° 0 mm 5 mps 743 mmHg 60%
    17:00 +12°C° 0 mm 5 mps 743 mmHg 62%
    18:00 +12°C° 0 mm 5 mps 743 mmHg 64%
    19:00 +12°C° 0 mm 5 mps 742 mmHg 66%
    20:00 +12°C° 0 mm 5 mps 742 mmHg 67%
    21:00 +12°C° 0 mm 5 mps 741 mmHg 68%
    22:00 +13°C° 0 mm 5 mps 741 mmHg 69%
    23:00 +13°C° 0.6 mm 6 mps 741 mmHg 72%
    Show more